Regional Weather Roundup
Issued by NWS

Home | Current Version | Previous Version | Graphics & Text | Print | Product List | Glossary On
Versions: 1 2 3 4 5 6 7 8 9 10 11 12 13 14 15 16 17 18 19 20 21 22 23 24 25 26 27 28 29 30 31 32 33 34 35 36 37 38 39 40 41 42 43 44 45 46 47 48 49 50
000
ASUS43 KMKX 262011
RWRWI

WISCONSIN REGIONAL WEATHER ROUNDUP
NATIONAL WEATHER SERVICE MILWAUKEE/SULLIVAN WI
300 PM CDT WED APR 26 2017

NOTE: "FAIR" INDICATES FEW OR NO CLOUDS BELOW 12,000 FEET WITH NO
SIGNIFICANT WEATHER AND/OR OBSTRUCTIONS TO VISIBILITY.

WIZ001-002-006>008-014>016-023>028-262100-
NORTHWEST WISCONSIN

CITY           SKY/WX    TMP DP  RH WIND       PRES   REMARKS
SUPERIOR ARPT  LGT RAIN  34  33  96 NE10      29.59R WCI  26
ASHLAND        LGT SNOW  34  32  92 NE16G25   29.54R FOG     WCI  24
HAYWARD        CLOUDY    35  33  92 N13       29.50S FOG     WCI  26
SIREN          CLOUDY    36  34  91 NE9       29.54R WCI  29
CUMBERLAND     CLOUDY    36  32  87 N12       29.50R WCI  27
RICE LAKE      CLOUDY    37  35  89 N12       29.50R WCI  30
CHETEK         CLOUDY    38  36  93 N6        29.48R WCI  33
LADYSMITH      CLOUDY    37  36  94 N10       29.47S WCI  30
EAU CLAIRE     CLOUDY    41  38  89 NW13      29.47R
MENOMONIE      CLOUDY    40  37  88 NW9       29.49R WCI  34
NEW RICHMOND   CLOUDY    39  36  89 N3        29.52S
OSCEOLA        CLOUDY    39  34  83 N12       29.56R WCI  32
$$

WIZ003>005-009-010-017-018-262100-
NORTH CENTRAL WISCONSIN

CITY           SKY/WX    TMP DP  RH WIND       PRES   REMARKS
MANITOWISH WTR DRIZZLE   34  34 100 N5        29.44R WCI  30
ARBOR VITAE    LGT RAIN  39  38  94 N10       29.41R WCI  32
WOODRUFF       LGT RAIN  39  38  94 N10       29.41R WCI  32
RHINELANDER    LGT RAIN  45  45 100 NW5       29.40R
EAGLE RIVER    RAIN      40  39  99 N8        29.40R WCI  34
LAND O LAKES   LGT RAIN  37  37 100 N8        29.43R WCI  31
PHILLIPS       CLOUDY    36  36 100 N8        29.43R WCI  29
TOMAHAWK       CLOUDY    41  39  95 NW6       29.42R
MEDFORD        DRIZZLE   44  43  97 NW9       29.40S
MERRILL        CLOUDY    49  49 100 N7        29.39R
$$

WIZ029-030-035-036-043>047-262100-
CENTRAL WISCONSIN

CITY           SKY/WX    TMP DP  RH WIND       PRES   REMARKS
WAUSAU         CLOUDY    59  57  93 SW14      29.36R
MOSINEE        CLOUDY    57  57 100 SW14      29.39R
MARSHFIELD     CLOUDY    46  44  93 W13       29.40R
STEVENS POINT  CLOUDY    59  56  88 SW9       29.39R
WAUPACA        CLOUDY    66  59  79 S13       29.39R
WAUTOMA        CLOUDY    64  58  80 SW12      29.40R
WISC RAPIDS    CLOUDY    57  54  89 W12       29.41R
CAMP DOUGLAS   CLOUDY    50  48  93 NW12      29.43R
$$

WIZ011>013-019>022-031-037>040-048>050-262100-
NORTHEAST WISCONSIN

CITY           SKY/WX    TMP DP  RH WIND       PRES   REMARKS
ANTIGO         DRIZZLE   55  55 100 S8        29.38S
SHAWANO        CLOUDY    64  59  85 S5        29.39R
OCONTO         CLOUDY    56  53  89 S7        29.39R
STURGEON BAY   CLOUDY    58  56  93 S12       29.40S FOG
GREEN BAY      CLOUDY    65  60  84 S16G22    29.40R
MANITOWOC      CLOUDY    65  59  81 S14G20    29.41F
APPLETON       CLOUDY    63  57  82 SW13      29.39R
CLINTONVILLE   CLOUDY    63  59  88 S12       29.39R
OSHKOSH        CLOUDY    64  58  80 S15G22    29.40R
$$

WIZ032>034-041-042-053>061-262100-
SOUTHWEST WISCONSIN

CITY           SKY/WX    TMP DP  RH WIND       PRES   REMARKS
LA CROSSE      CLOUDY    48  44  86 NW8       29.48R
SPARTA         CLOUDY    46  46  99 W6        29.47R FOG
VIROQUA        CLOUDY    48  48 100 W8        29.46R VSB 1
BOSCOBEL       CLOUDY    56  52  86 SW9       29.45S
PRAIRIE DU CHI CLOUDY    49  45  84 W10       29.48S
PLATTEVILLE    CLOUDY    53  53 100 SW15      29.47S
$$

WIZ056-057-062-063-064-067-068-262100-
SOUTH CENTRAL WISCONSIN

CITY           SKY/WX    TMP DP  RH WIND       PRES   REMARKS
REEDSBURG      CLOUDY    63  57  82 SW13      29.40F
BARABOO/DELLS  CLOUDY    62  54  75 SW12G17   29.40F
LONE ROCK      CLOUDY    58  53  84 SW13      29.43F
MINERAL POINT  CLOUDY    55  54  94 SW13      29.45F
MADISON        CLOUDY    63  55  75 W10G17    29.41F
MIDDLETON      PTSUNNY   64  56  75 SW10G16   29.43F
WATERTOWN      CLOUDY    67  61  79 SW14      29.42F
MONROE         CLOUDY    61  54  77 SW12      29.45R
JANESVILLE     CLOUDY    66  57  72 SW12G17   29.45R
$$

WIZ051-052-058>065-066-070>072-262100-
SOUTHEAST WISCONSIN

CITY           SKY/WX    TMP DP  RH WIND       PRES   REMARKS
MILWAUKEE      PTSUNNY   72  59  63 SW18G24   29.46R
WAUKESHA       MOSUNNY   64  57  77 SW10      29.45F
MILWAUKEE/TIMM MOSUNNY   70  55  60 SW9       29.45S
RACINE         PTSUNNY   73  57  57 SW15G24   29.47R
KENOSHA        PTSUNNY   72  58  61 SW14      29.45R
FOND DU LAC    CLOUDY    65  58  78 SW16G23   29.41S
SHEBOYGAN      CLOUDY    67  62  84 SW21      29.43S
WEST BEND      PTSUNNY   66  61  82 SW12      29.43F
JUNEAU         CLOUDY    64  59  83 S12       29.43F
$$

LSZ147-162-262100-
LAKE SUPERIOR

STATION/POSITION TIME  TEMP    WIND        PRES    WAVE
                       AIR SEA DIR/SP/G            HT/PER
                 (UTC) (F)     (DEG/KT/KT) (MB)    (FT/S)
DEVILS ISLAND    2000   33      30/ 26/ 31 1001.9R
PORT WING        1930   33      40/ 21/ 29 1001.7R
SAXON HARBOR     1930   34      40/ 26/ 30  999.7R
$$

LMZ867-665-643>646-262100-
LAKE MICHIGAN

STATION/POSITION TIME  TEMP    WIND        PRES    WAVE
                       AIR SEA DIR/SP/G            HT/PER
                 (UTC) (F)     (DEG/KT/KT) (MB)    (FT/S)
CHAMBERS ISLAND  1940   55     170/  7/ 15  995.3R
N MID LAKE BUOY  1950   47 38  200/ 10/ 12  997.0F   2/ 4
NORTHPORT PIER   1940   54     170/  6/ 11  995.6F
KEWAUNEE LAKESHO 1948   47     170/  9/ 11  995.9R
SHEBOYGAN LAKESH 2000   65     220/ 15/ 18  996.0S
PORT WASHINGTON  1920   66     230/ 10/ 16  998.0
MILWAUKEE LAKESH 1950   67     230/ 12/ 17   N/A
S MID LAKE BUOY  1850   50 41  220/  8/  8  998.1R   1/ 4
KENOSHA   LAKESH 2000   72     210/ 14/ 22  997.6
$$

TC  - TEMPERATURE IN CELSIUS
VSB - VISIBILITY IN STATUTE MILES
WCI - WIND CHILL INDEX
HX  - HEAT INDEX




USA.gov is the U.S. government's official web portal to all federal, state and local government web resources and services.